Flag for Malaysia Weather past 2 weeks in Kuala Lumpur, Malaysia

Now
86 °F

Broken clouds.


Feels Like: 97 °F
Forecast: 77 / 92 °F
Wind: 7 mph from South

Location: Sultan Abdul Aziz Shah-Subang

Current Time: Jul 30, 2014 at 12:21:53 PM

Latest Report: Jul 30, 2014 at 11:00 AM


Visibility: 4 mi

Pressure: 29.86 "Hg

Humidity: 75%

Dew point: 77 °F

Location of Kuala LumpurLocation

Historic Weather in Kuala Lumpur — Graph

°F

Kuala Lumpur temperature yesterday

Maximum temperature yesterday: 90 °F (at 1:00 PM)
Minimum temperature yesterday: 77 °F (at 5:00 PM)
Average temperature yesterday: 81 °F

Past Weeks' High & Low Weather Summary

 TemperatureHumidityPressure
High95 °F (Jul 15, 3:00 PM)94% (Jul 17, 5:00 AM)29.92 "Hg (Jul 17, 5:00 AM)
Low75 °F (Jul 20, 6:00 AM)32% (Jul 19, 3:00 PM)29.71 "Hg (Jul 18, 4:00 PM)
Average86 °F68%29.81 "Hg
* Reported Jul 15 11:00 AM — Jul 30 11:00 AM, Kuala Lumpur, Weather by CustomWeather, © 2014

Note: Actual official high and low records may vary slightly from our data, if they occured in-between our weather recording intervals... More about our weather records

Advertising

Kuala Lumpur weather history for previous 24 hours

 ConditionsComfort  
Time TempWeatherWind HumidityBarometerVisibility
11:00 AM
Jul 30
86 °FBroken clouds.7 mph75%29.86 "Hg4 mi
10:00 AM84 °FBroken clouds.7 mph79%29.86 "Hg4 mi
9:00 AM81 °FBroken clouds.1 mph89%29.83 "Hg4 mi
8:00 AM77 °FPartly sunny.No wind94%29.80 "Hg2 mi
7:00 AM77 °FPassing clouds.1 mph94%29.80 "Hg2 mi
6:00 AM77 °FPartly cloudy.1 mph94%29.80 "Hg2 mi
5:00 AM77 °FPartly cloudy.No wind94%29.80 "Hg2 mi
4:00 AM77 °FPassing clouds.2 mph94%29.83 "Hg2 mi
3:00 AM77 °FPassing clouds.No wind94%29.83 "Hg2 mi
2:00 AM77 °FPassing clouds.1 mph94%29.83 "Hg2 mi
1:00 AM79 °FPassing clouds.1 mph89%29.83 "Hg2 mi
12:00 AM79 °FPassing clouds.No wind94%29.83 "Hg2 mi
11:00 PM
Jul 29
79 °FPartly cloudy.No wind94%29.83 "Hg2 mi
10:00 PM79 °FMostly cloudy.1 mph94%29.83 "Hg2 mi
9:00 PM79 °FMostly cloudy.1 mph94%29.83 "Hg2 mi
8:00 PM79 °FMostly cloudy.1 mph94%29.80 "Hg2 mi
7:00 PM79 °FLight rain. More clouds than sun.2 mph89%29.80 "Hg2 mi
6:00 PM77 °FLight rain. More clouds than sun.No wind94%29.80 "Hg2 mi
5:00 PM77 °FLight rain. More clouds than sun.3 mph89%29.77 "Hg3 mi
4:00 PM79 °FThunderstorms. More clouds than sun.7 mph94%29.80 "Hg1 mi
3:00 PM82 °FThunderstorms. Broken clouds.5 mph79%29.80 "Hg2 mi
2:00 PM86 °FSprinkles. Broken clouds.15 mph70%29.80 "Hg2 mi
1:00 PM90 °FBroken clouds.7 mph59%29.83 "Hg2 mi
12:00 PM88 °FBroken clouds.3 mph66%29.86 "Hg2 mi
Weather by CustomWeather, © 2014

See weather overviewHow to use our weather pages